contact:dominique.lefevre@mio.osupytheas.fr, maurice.libes@osupytheas.fr, didier.mallarino@osupytheas.fr
Project:EMSO http://www.emso-fr.org/EMSO-France
Depth: 2436.0 m
Title:EMSO Ligure Ouest : Data MII capteur MICROCAT
DateTime_Computer,Latitude,Longitude,Temperature,Conductivity,Pressure,DateTime_Instrument
DateTime_Computer,Latitude,Longitude,degC,S m-1,dbar,DateTime_Instrument
2019-07-16T00:02:18Z,42.805,6.029,13.3026,4.60021,2469.83,2019-7-16T02:02:36Z
2019-07-16T00:05:21Z,42.805,6.029,13.3026,4.60018,2469.83,2019-7-16T02:05:39Z
2019-07-16T00:08:24Z,42.805,6.029,13.3035,4.60038,2469.867,2019-7-16T02:08:42Z
2019-07-16T00:11:27Z,42.805,6.029,13.3042,4.59995,2469.844,2019-7-16T02:11:46Z
2019-07-16T00:14:30Z,42.805,6.029,13.3020,4.60005,2469.844,2019-7-16T02:14:49Z
2019-07-16T00:17:34Z,42.805,6.029,13.3051,4.59996,2469.806,2019-7-16T02:17:52Z
2019-07-16T00:20:37Z,42.805,6.029,13.3036,4.59997,2469.844,2019-7-16T02:20:55Z
2019-07-16T00:23:40Z,42.805,6.029,13.3009,4.60011,2469.83,2019-7-16T02:23:58Z
2019-07-16T00:26:43Z,42.805,6.029,13.3019,4.60011,2469.844,2019-7-16T02:27:02Z
2019-07-16T00:29:46Z,42.805,6.029,13.3027,4.60006,2469.844,2019-7-16T02:30:05Z
2019-07-16T00:32:50Z,42.805,6.029,13.3013,4.60033,2469.806,2019-7-16T02:33:08Z
2019-07-16T00:35:53Z,42.805,6.029,13.3031,4.60041,2469.806,2019-7-16T02:36:11Z
2019-07-16T00:38:56Z,42.805,6.029,13.3036,4.60005,2469.844,2019-7-16T02:39:14Z
2019-07-16T00:41:59Z,42.805,6.029,13.3042,4.60006,2469.844,2019-7-16T02:42:18Z
2019-07-16T00:45:02Z,42.805,6.029,13.3033,4.60019,2469.806,2019-7-16T02:45:21Z
2019-07-16T00:48:06Z,42.805,6.029,13.3054,4.60006,2469.806,2019-7-16T02:48:24Z
2019-07-16T00:51:09Z,42.805,6.029,13.3048,4.60013,2469.821,2019-7-16T02:51:27Z
2019-07-16T00:54:12Z,42.805,6.029,13.2997,4.60013,2469.844,2019-7-16T02:54:30Z
2019-07-16T00:57:15Z,42.805,6.029,13.2993,4.60009,2469.783,2019-7-16T02:57:33Z
2019-07-16T01:00:18Z,42.805,6.029,13.2997,4.60013,2469.783,2019-7-16T03:00:37Z
2019-07-16T01:03:21Z,42.805,6.029,13.3000,4.60011,2469.806,2019-7-16T03:03:40Z
2019-07-16T01:06:25Z,42.805,6.029,13.2983,4.59997,2469.806,2019-7-16T03:06:43Z
2019-07-16T01:09:28Z,42.805,6.029,13.2984,4.60011,2469.811,2019-7-16T03:09:46Z
2019-07-16T01:12:31Z,42.805,6.029,13.2987,4.59992,2469.844,2019-7-16T03:12:49Z
2019-07-16T01:15:34Z,42.805,6.029,13.2997,4.60000,2469.797,2019-7-16T03:15:53Z
2019-07-16T01:18:37Z,42.805,6.029,13.2984,4.59976,2469.83,2019-7-16T03:18:56Z
2019-07-16T01:21:41Z,42.805,6.029,13.2987,4.59988,2469.821,2019-7-16T03:21:59Z
2019-07-16T01:24:44Z,42.805,6.029,13.2991,4.60013,2469.806,2019-7-16T03:25:02Z
2019-07-16T01:27:47Z,42.805,6.029,13.2996,4.60009,2469.821,2019-7-16T03:28:05Z
2019-07-16T01:30:50Z,42.805,6.029,13.3003,4.59991,2469.797,2019-7-16T03:31:09Z
2019-07-16T01:33:53Z,42.805,6.029,13.3016,4.59993,2469.797,2019-7-16T03:34:12Z
2019-07-16T01:36:57Z,42.805,6.029,13.2982,4.59994,2469.797,2019-7-16T03:37:15Z
2019-07-16T01:40:00Z,42.805,6.029,13.2993,4.60005,2469.821,2019-7-16T03:40:18Z
2019-07-16T01:43:03Z,42.805,6.029,13.2999,4.60036,2469.821,2019-7-16T03:43:21Z
2019-07-16T01:46:06Z,42.805,6.029,13.2991,4.60000,2469.806,2019-7-16T03:46:25Z
2019-07-16T01:49:09Z,42.805,6.029,13.2976,4.60008,2469.806,2019-7-16T03:49:28Z
2019-07-16T01:52:13Z,42.805,6.029,13.2972,4.60024,2469.773,2019-7-16T03:52:31Z
2019-07-16T01:55:16Z,42.805,6.029,13.2984,4.60021,2469.821,2019-7-16T03:55:34Z
2019-07-16T01:58:19Z,42.805,6.029,13.2990,4.60002,2469.783,2019-7-16T03:58:38Z
2019-07-16T02:01:22Z,42.805,6.029,13.2993,4.60004,2469.797,2019-7-16T04:01:41Z
2019-07-16T02:04:25Z,42.805,6.029,13.2993,4.59997,2469.797,2019-7-16T04:04:44Z
2019-07-16T02:07:29Z,42.805,6.029,13.2983,4.60016,2469.797,2019-7-16T04:07:47Z
2019-07-16T02:10:32Z,42.805,6.029,13.2998,4.60012,2469.783,2019-7-16T04:10:50Z
2019-07-16T02:13:35Z,42.805,6.029,13.2972,4.60003,2469.821,2019-7-16T04:13:53Z
2019-07-16T02:16:38Z,42.805,6.029,13.2991,4.60027,2469.821,2019-7-16T04:16:57Z
2019-07-16T02:19:41Z,42.805,6.029,13.3003,4.59996,2469.797,2019-7-16T04:20:00Z
2019-07-16T02:22:45Z,42.805,6.029,13.3014,4.59995,2469.821,2019-7-16T04:23:03Z
2019-07-16T02:25:48Z,42.805,6.029,13.3011,4.59976,2469.797,2019-7-16T04:26:06Z
2019-07-16T02:28:51Z,42.805,6.029,13.3029,4.59991,2469.783,2019-7-16T04:29:10Z
2019-07-16T02:31:54Z,42.805,6.029,13.3019,4.59984,2469.806,2019-7-16T04:32:13Z
2019-07-16T02:34:57Z,42.805,6.029,13.3037,4.59985,2469.797,2019-7-16T04:35:16Z
2019-07-16T02:38:01Z,42.805,6.029,13.3040,4.59979,2469.821,2019-7-16T04:38:19Z
2019-07-16T02:41:04Z,42.805,6.029,13.3037,4.59983,2469.797,2019-7-16T04:41:22Z
2019-07-16T02:44:07Z,42.805,6.029,13.3026,4.60003,2469.806,2019-7-16T04:44:25Z
2019-07-16T02:47:10Z,42.805,6.029,13.3026,4.59986,2469.797,2019-7-16T04:47:29Z
2019-07-16T02:50:13Z,42.805,6.029,13.3021,4.59999,2469.797,2019-7-16T04:50:32Z
2019-07-16T02:53:17Z,42.805,6.029,13.3011,4.59996,2469.821,2019-7-16T04:53:35Z
2019-07-16T02:56:20Z,42.805,6.029,13.3021,4.60014,2469.821,2019-7-16T04:56:38Z
2019-07-16T02:59:23Z,42.805,6.029,13.3055,4.59985,2469.844,2019-7-16T04:59:41Z
2019-07-16T03:02:26Z,42.805,6.029,13.3033,4.60012,2469.858,2019-7-16T05:02:45Z
2019-07-16T03:05:29Z,42.805,6.029,13.3004,4.59994,2469.83,2019-7-16T05:05:48Z
2019-07-16T03:08:32Z,42.805,6.029,13.3026,4.59992,2469.83,2019-7-16T05:08:51Z
2019-07-16T03:11:36Z,42.805,6.029,13.3009,4.59982,2469.83,2019-7-16T05:11:54Z
2019-07-16T03:14:39Z,42.805,6.029,13.2997,4.59993,2469.821,2019-7-16T05:14:57Z
2019-07-16T03:17:42Z,42.805,6.029,13.2983,4.60001,2469.797,2019-7-16T05:18:01Z
2019-07-16T03:20:46Z,42.805,6.029,13.3004,4.59993,2469.844,2019-7-16T05:21:04Z
2019-07-16T03:23:49Z,42.805,6.029,13.2999,4.59999,2469.844,2019-7-16T05:24:07Z
2019-07-16T03:26:52Z,42.805,6.029,13.3000,4.60002,2469.821,2019-7-16T05:27:11Z
2019-07-16T03:29:55Z,42.805,6.029,13.3026,4.60001,2469.844,2019-7-16T05:30:14Z
2019-07-16T03:32:59Z,42.805,6.029,13.3002,4.59998,2469.844,2019-7-16T05:33:17Z
2019-07-16T03:36:02Z,42.805,6.029,13.3034,4.59992,2469.83,2019-7-16T05:36:20Z
2019-07-16T03:39:05Z,42.805,6.029,13.3029,4.59996,2469.816,2019-7-16T05:39:24Z
2019-07-16T03:42:09Z,42.805,6.029,13.3025,4.59986,2469.806,2019-7-16T05:42:27Z
2019-07-16T03:45:12Z,42.805,6.029,13.3032,4.60003,2469.867,2019-7-16T05:45:30Z
2019-07-16T03:48:15Z,42.805,6.029,13.3011,4.60004,2469.83,2019-7-16T05:48:33Z
2019-07-16T03:51:18Z,42.805,6.029,13.3011,4.59986,2469.844,2019-7-16T05:51:37Z
2019-07-16T03:54:22Z,42.805,6.029,13.3031,4.59991,2469.844,2019-7-16T05:54:40Z
2019-07-16T03:57:25Z,42.805,6.029,13.3014,4.59999,2469.844,2019-7-16T05:57:43Z
2019-07-16T04:00:28Z,42.805,6.029,13.3036,4.60007,2469.853,2019-7-16T06:00:47Z
2019-07-16T04:03:32Z,42.805,6.029,13.3036,4.60003,2469.83,2019-7-16T06:03:50Z
2019-07-16T04:06:35Z,42.805,6.029,13.3009,4.59991,2469.83,2019-7-16T06:06:53Z
2019-07-16T04:09:38Z,42.805,6.029,13.2996,4.60014,2469.867,2019-7-16T06:09:57Z
2019-07-16T04:12:41Z,42.805,6.029,13.3013,4.60004,2469.853,2019-7-16T06:13:00Z
2019-07-16T04:15:45Z,42.805,6.029,13.3000,4.60010,2469.89,2019-7-16T06:16:03Z
2019-07-16T04:18:48Z,42.805,6.029,13.3032,4.59994,2469.89,2019-7-16T06:19:06Z
2019-07-16T04:21:51Z,42.805,6.029,13.3015,4.60009,2469.89,2019-7-16T06:22:10Z
2019-07-16T04:24:55Z,42.805,6.029,13.3026,4.60011,2469.867,2019-7-16T06:25:13Z
2019-07-16T04:27:58Z,42.805,6.029,13.3046,4.60013,2469.89,2019-7-16T06:28:16Z
2019-07-16T04:31:01Z,42.805,6.029,13.3035,4.60000,2469.876,2019-7-16T06:31:20Z
2019-07-16T04:34:05Z,42.805,6.029,13.3051,4.60012,2469.89,2019-7-16T06:34:23Z
2019-07-16T04:37:08Z,42.805,6.029,13.2962,4.60039,2469.867,2019-7-16T06:37:26Z
2019-07-16T04:40:11Z,42.805,6.029,13.2967,4.60019,2469.853,2019-7-16T06:40:30Z
2019-07-16T04:43:14Z,42.805,6.029,13.2957,4.60021,2469.89,2019-7-16T06:43:33Z
2019-07-16T04:46:18Z,42.805,6.029,13.2956,4.60009,2469.876,2019-7-16T06:46:36Z
2019-07-16T04:49:21Z,42.805,6.029,13.2961,4.59996,2469.89,2019-7-16T06:49:39Z
2019-07-16T04:52:24Z,42.805,6.029,13.2957,4.59991,2469.89,2019-7-16T06:52:43Z
2019-07-16T04:55:28Z,42.805,6.029,13.2956,4.59981,2469.876,2019-7-16T06:55:46Z
2019-07-16T04:58:31Z,42.805,6.029,13.2955,4.59994,2469.876,2019-7-16T06:58:49Z
2019-07-16T05:01:34Z,42.805,6.029,13.2957,4.59976,2469.89,2019-7-16T07:01:53Z
2019-07-16T05:04:37Z,42.805,6.029,13.2956,4.60006,2469.914,2019-7-16T07:04:56Z
2019-07-16T05:07:41Z,42.805,6.029,13.2956,4.60002,2469.876,2019-7-16T07:07:59Z
2019-07-16T05:10:44Z,42.805,6.029,13.2958,4.59991,2469.923,2019-7-16T07:11:02Z
2019-07-16T05:13:47Z,42.805,6.029,13.2956,4.59979,2469.876,2019-7-16T07:14:06Z
2019-07-16T05:16:51Z,42.805,6.029,13.2957,4.59995,2469.923,2019-7-16T07:17:09Z
2019-07-16T05:19:54Z,42.805,6.029,13.2955,4.59996,2469.923,2019-7-16T07:20:12Z
2019-07-16T05:22:57Z,42.805,6.029,13.2952,4.59994,2469.9,2019-7-16T07:23:15Z
